Cloud_Cover
68 76 88 88 88 80 76 68 64 48 32 24 24 24 32 32 36 48 56 44 44 44 44 44 48 56 56 56 56 48 48 36 32 32 32 24 32 32 32 24 24 24 32 20 20 24 20 12 12 12 12 12 12 8 0 0 0 0 0 0 0 0 0 8 8 8 12 20 24 24 24 24 20 8 12 0 0 0 8 8 8 8 12 20 24 36
56 64 88 88 88 80 80 80 80 76 68 44 44 56 64 56 64 64 68 64 48 48 48 48 56 56 48 48 48 48 44 44 36 32 32 24 24 24 24 20 20 20 20 12 12 12 12 12 12 12 20 12 8 0 0 0 0 0 0 0 0 0 8 8 12 12 20 24 24 24 24 32 24 24 24 12 8 8 8 12 12 8 0 12 24 36
64 68 76 80 80 88 88 88 88 88 80 68 68 76 76 68 68 68 56 48 48 56 64 56 56 56 44 44 44 44 44 36 36 36 32 32 32 24 20 20 20 12 8 8 12 12 12 12 12 12 12 8 0 0 0 0 0 0 0 0 0 8 12 12 20 20 24 32 36 44 36 36 36 32 32 24 20 12 0 0 8 8 0 8 24 44
68 76 68 76 80 80 88 88 88 88 88 80 80 76 64 48 56 64 64 56 56 64 64 56 56 48 44 36 36 36 44 36 36 44 44 36 36 36 24 20 20 12 12 8 12 12 12 12 12 12 8 8 8 0 0 0 0 0 0 0 0 0 20 20 24 24 24 36 56 68 48 44 44 36 44 32 24 20 12 12 8 8 0 8 20 32
76 68 56 68 76 80 88 92 92 88 88 80 88 88 68 56 64 68 68 64 64 64 56 48 48 44 36 32 32 32 36 36 36 36 32 32 32 32 32 12 12 8 12 8 8 8 8 8 8 8 0 0 0 0 0 0 0 0 0 0 0 0 8 12 20 24 44 56 64 68 48 36 36 36 44 32 36 44 36 24 24 20 12 12 24 32
76 68 48 56 68 76 80 88 92 92 92 92 92 88 80 76 76 76 68 68 68 64 56 48 44 44 36 32 32 32 32 36 32 32 32 24 24 20 20 8 8 8 8 8 0 0 0 0 0 0 0 0 0 0 0 0 0 0 0 0 0 0 0 0 0 8 36 44 36 24 24 20 20 20 24 20 32 36 32 24 24 24 24 24 24 32
76 68 64 64 64 68 76 88 92 92 92 92 92 92 88 88 80 76 68 68 68 64 48 44 44 44 44 36 36 32 32 24 32 36 32 20 20 20 12 12 8 8 8 8 8 0 0 0 0 0 0 0 0 0 0 0 0 0 0 0 0 0 0 0 0 0 0 8 8 0 0 0 0 0 12 0 8 20 12 12 20 24 32 24 24 32
76 68 68 68 68 68 68 80 88 92 92 92 92 92 92 88 80 68 68 68 68 64 64 48 36 36 36 32 32 24 24 24 24 32 32 20 20 20 12 8 12 12 12 12 8 8 0 0 0 0 0 0 0 0 0 0 0 0 0 0 0 0 0 0 0 0 0 0 0 0 0 0 0 0 0 0 0 0 0 8 8 12 20 32 32 24
76 76 80 80 80 80 76 80 88 92 92 92 92 92 80 76 68 68 64 64 56 64 68 64 48 36 32 24 24 24 24 20 20 20 20 20 20 20 20 12 12 12 12 8 8 0 0 0 0 0 0 0 0 0 0 0 0 0 0 0 0 0 0 0 0 0 0 0 0 0 0 0 0 0 0 0 0 0 0 0 0 0 0 24 32 24
76 76 80 88 92 92 88 92 92 92 92 92 88 80 76 68 68 68 68 56 56 64 68 68 64 44 24 24 24 24 24 20 12 12 20 12 12 20 32 20 12 8 12 0 0 0 0 0 0 0 0 0 0 0 0 0 0 0 0 0 0 0 0 0 0 0 0 0 0 0 0 0 0 0 0 0 0 0 0 0 0 0 0 12 24 32
68 68 76 80 88 92 92 92 92 92 92 92 88 80 76 76 76 76 68 56 56 68 68 64 64 48 24 24 24 24 20 12 12 12 12 8 12 20 24 12 0 0 0 8 0 0 0 0 0 0 0 0 0 0 0 0 0 0 0 0 0 0 0 0 0 0 0 0 0 0 0 0 0 0 0 0 0 0 0 0 0 8 24 24 36 48
68 76 76 76 80 88 92 92 92 92 92 92 92 88 80 80 80 80 68 48 48 64 88 68 64 56 32 24 20 20 12 8 8 8 8 8 8 8 8 0 0 8 8 8 8 0 0 0 0 0 0 0 0 0 0 0 0 0 0 0 0 0 0 0 0 0 0 0 0 0 0 0 0 0 0 0 0 0 0 0 0 8 44 64 68 68
76 76 76 76 68 68 76 76 80 92 92 92 92 92 92 88 88 80 56 48 56 76 92 88 80 76 76 36 20 20 12 12 8 8 8 8 0 0 0 0 0 8 8 0 0 0 0 0 0 0 0 0 0 0 0 0 0 0 0 0 0 0 0 0 0 0 0 0 0 0 0 0 0 0 0 0 0 0 0 0 0 12 36 68 80 80
68 76 80 76 68 68 88 88 92 92 92 92 92 92 92 92 80 68 64 80 88 92 92 92 92 92 92 48 24 12 20 20 12 8 8 0 0 0 0 0 0 0 0 0 0 0 0 0 0 0 0 0 0 0 0 0 0 0 0 0 0 0 0 0 0 0 0 0 0 0 0 0 0 0 0 0 0 0 0 0 0 0 8 24 36 56
76 76 80 88 88 92 92 92 92 92 92 92 92 92 92 92 88 88 88 92 92 92 92 92 92 92 92 32 12 8 12 12 12 12 8 0 0 0 0 0 0 0 0 0 0 0 0 0 0 0 0 0 0 0 0 0 0 0 0 0 0 0 0 0 0 0 0 0 0 0 0 0 0 0 0 0 0 0 0 0 0 0 0 0 20 48
80 92 88 92 92 92 92 92 92 92 92 92 92 92 92 92 92 92 92 92 92 92 92 92 92 76 20 20 12 12 20 12 12 8 0 0 0 0 0 0 0 0 0 0 0 0 0 0 0 0 0 0 0 0 0 0 0 0 0 0 0 0 0 0 0 0 0 0 0 0 0 0 0 0 0 0 0 0 0 0 0 0 0 8 20 48
92 92 92 92 92 92 92 92 92 92 92 92 92 92 92 92 92 92 92 92 92 92 92 92 92 76 20 12 20 20 20 32 24 20 8 0 0 0 0 0 0 0 0 0 0 0 0 0 0 0 0 0 0 0 0 0 0 0 0 0 0 8 44 24 8 0 0 0 0 0 0 0 0 0 0 0 0 0 0 0 0 0 0 0 0 12
92 92 92 92 92 92 92 92 92 92 92 92 92 92 92 92 92 92 92 92 92 92 92 92 88 76 24 12 20 20 20 24 32 36 32 12 0 0 0 0 0 0 0 0 0 0 0 0 0 0 0 0 0 0 0 0 0 0 0 0 0 0 20 48 76 76 32 8 0 0 0 0 0 0 0 0 0 0 0 0 0 0 0 0 12 32
92 92 92 92 92 92 92 92 92 92 92 92 92 92 92 92 92 92 92 92 92 92 92 80 44 24 44 44 24 12 12 8 8 20 20 8 0 0 0 0 0 0 0 0 0 0 0 0 0 0 0 0 0 0 0 0 0 0 0 0 0 20 76 36 32 20 0 0 0 0 0 0 0 0 0 0 0 0 0 0 0 0 0 0 0 12
92 92 92 92 92 92 92 92 92 92 92 92 92 92 92 92 92 92 92 92 92 92 88 88 64 44 56 44 24 8 0 0 8 20 20 0 0 0 0 0 0 0 0 0 0 0 0 0 0 0 0 0 0 0 0 0 0 0 0 0 12 24 24 8 0 0 0 0 0 0 0 0 0 0 0 0 0 0 0 0 0 0 0 0 8 24
92 92 92 92 92 92 92 92 92 92 92 92 92 92 92 92 92 92 92 92 92 88 64 56 56 56 68 48 36 32 12 8 12 12 12 0 0 0 0 0 0 0 0 0 0 0 0 0 0 0 0 0 0 0 0 0 0 0 0 0 0 0 0 0 0 0 0 0 0 0 0 0 0 0 0 0 0 0 0 0 0 0 0 0 20 48
92 92 92 92 92 92 92 92 92 92 92 92 92 92 92 92 92 92 92 92 88 76 68 76 76 80 88 64 48 32 8 8 12 12 12 0 0 0 0 0 0 0 0 0 0 0 0 0 0 0 0 0 0 0 0 0 0 0 0 0 0 0 0 0 0 0 0 0 0 0 0 0 0 0 0 0 0 0 0 0 0 0 0 0 8 36
92 92 92 92 92 92 92 92 92 92 92 92 92 92 92 92 92 92 92 88 80 68 64 64 64 56 44 32 20 12 12 12 12 12 12 0 0 0 0 0 0 0 0 0 0 0 0 0 0 0 0 0 0 0 0 0 0 0 0 0 0 0 0 0 0 0 0 0 0 0 0 0 0 0 0 0 0 8 0 0 0 0 0 0 20 48
92 92 92 92 92 92 92 92 92 92 92 92 92 92 92 92 92 92 92 88 80 76 64 56 56 48 36 24 20 12 12 20 20 20 12 0 0 0 0 0 0 0 0 0 0 0 0 0 0 0 0 0 0 0 0 0 0 0 0 0 0 0 0 0 0 0 0 0 0 0 0 0 0 0 0 0 8 12 12 8 0 0 0 0 8 36
92 92 92 92 92 92 92 92 92 92 92 92 92 92 92 92 92 92 92 92 88 88 80 68 64 56 36 24 20 12 20 20 20 12 0 0 0 0 0 0 0 0 0 0 0 0 0 0 0 0 0 0 0 0 0 0 0 0 0 0 0 0 0 0 0 0 0 0 0 0 0 0 0 8 24 24 24 20 20 12 12 8 0 8 20 44
92 92 92 92 92 92 92 92 92 92 92 92 92 88 88 92 92 92 92 88 88 76 68 64 56 48 32 24 20 12 12 12 8 8 0 0 0 0 0 0 0 0 0 0 0 0 0 0 0 0 0 0 0 0 0 0 0 0 0 0 0 0 0 0 0 0 0 0 0 8 24 24 24 36 88 80 56 36 32 20 20 12 8 24 36 48
92 92 92 92 92 92 92 92 92 92 92 92 88 80 76 88 92 92 88 88 76 68 64 56 56 44 32 20 12 8 8 0 0 0 0 0 0 0 0 0 0 0 0 0 0 0 0 0 0 0 0 0 0 0 0 0 0 0 0 0 0 0 0 0 0 0 0 0 0 24 88 88 88 88 88 88 64 36 32 32 32 32 24 56 80 88
88 88 88 88 80 80 92 92 92 92 92 92 92 88 80 88 88 92 88 80 68 64 48 48 44 36 24 20 8 0 0 0 0 0 0 0 0 0 0 0 0 0 0 0 0 0 0 0 0 0 0 0 0 0 0 0 0 0 0 0 0 0 0 0 0 0 0 0 0 20 76 88 88 88 88 88 76 48 32 24 24 32 44 80 88 88
76 80 80 80 76 68 76 88 92 92 92 92 92 92 92 92 92 92 92 76 76 68 56 44 36 24 12 8 0 0 0 0 0 0 0 0 0 0 0 0 0 0 0 0 0 0 0 0 0 0 0 0 0 0 0 0 0 0 0 0 0 0 0 0 0 0 0 0 0 8 32 76 88 88 88 88 88 80 48 24 12 12 32 76 92 92
56 64 68 68 64 56 56 68 80 92 92 92 92 92 92 92 92 92 92 88 88 80 76 56 36 24 12 8 8 8 8 0 0 0 0 0 0 0 0 0 0 0 0 0 0 0 0 0 0 0 0 0 0 0 0 0 0 0 0 0 0 0 0 0 0 0 0 0 0 0 8 44 76 88 88 88 88 80 68 56 36 20 20 48 76 88
36 44 48 56 48 44 44 48 64 76 92 92 92 92 92 92 92 92 92 92 88 76 76 56 36 24 8 12 12 20 8 0 0 0 0 0 0 0 0 0 0 0 0 0 0 0 0 0 0 0 0 0 0 0 0 0 0 0 0 0 0 0 0 0 0 0 0 0 0 0 0 8 36 56 48 80 88 88 88 88 68 36 0 20 48 80
32 32 36 44 36 32 32 32 44 56 68 76 80 88 92 76 68 68 68 68 64 56 64 48 32 20 8 20 20 12 0 0 0 0 0 0 0 0 0 0 0 0 0 0 0 0 0 0 0 0 0 0 0 0 0 0 0 0 0 0 0 0 0 0 0 0 0 0 0 0 0 0 8 12 0 32 48 48 36 64 64 44 8 20 44 64
24 24 24 32 32 24 24 32 44 48 32 36 44 56 64 44 36 36 36 36 32 32 36 36 36 24 20 12 12 8 8 0 0 0 0 0 0 0 0 0 0 0 0 0 0 0 0 0 0 0 0 0 0 0 0 0 0 0 0 0 0 0 0 0 0 0 0 0 0 0 0 0 0 0 0 0 8 8 0 20 20 20 20 20 24 32
20 20 24 24 24 24 36 44 44 36 20 20 24 24 32 24 20 24 24 24 20 20 20 24 32 32 24 20 12 8 12 0 0 0 0 0 0 0 0 0 0 0 0 0 0 0 0 0 0 0 0 0 0 0 0 0 0 0 0 0 0 0 0 0 0 0 0 0 0 0 0 0 0 0 0 0 0 0 0 0 0 0 8 12 12 12
20 20 20 20 24 32 36 32 32 24 20 20 20 20 20 20 20 24 20 20 20 12 12 12 20 20 20 20 12 8 8 0 0 0 0 0 0 0 0 0 0 0 0 0 0 0 0 0 0 0 0 0 0 0 0 0 0 0 0 0 0 0 0 0 0 0 0 0 0 0 0 0 0 0 0 0 0 0 0 0 0 0 0 0 0 0
32 32 32 32 36 44 44 44 36 32 36 32 24 20 20 20 12 12 12 12 12 8 8 8 8 8 8 8 12 8 0 0 0 0 0 0 0 0 0 0 0 0 0 0 0 0 0 0 0 0 0 0 0 0 0 0 0 0 0 0 0 0 0 0 0 0 0 0 0 0 0 0 0 0 0 0 0 0 0 0 0 0 0 0 0 0
44 44 48 48 48 48 48 48 48 44 36 36 36 32 20 12 12 12 8 12 8 8 8 0 0 0 0 0 12 12 8 0 0 0 0 0 0 0 0 0 0 0 0 0 0 0 0 0 0 0 0 0 0 0 0 0 0 0 0 0 0 0 0 0 0 0 0 0 0 0 0 0 0 0 0 0 0 0 0 0 0 0 0 0 0 0
44 44 48 48 44 36 36 36 36 36 36 36 36 32 12 12 8 8 8 8 12 20 12 0 0 0 0 0 0 0 0 0 0 0 0 0 0 0 0 0 0 0 0 8 12 12 8 0 8 8 0 0 0 0 0 0 0 0 0 0 0 0 0 0 0 0 0 0 0 0 0 0 0 0 0 0 0 0 0 0 0 0 0 0 0 0
24 32 36 44 44 36 36 36 36 32 24 24 20 20 12 8 0 0 0 8 8 8 0 0 0 0 0 0 0 0 0 0 0 0 0 0 0 0 0 0 0 0 8 0 8 12 12 12 12 12 12 8 0 0 0 0 0 0 0 0 0 0 0 0 0 0 0 0 0 0 0 0 0 0 0 0 0 0 0 0 0 0 0 0 0 0
8 12 20 8 8 8 12 12 20 20 12 20 20 20 20 12 12 32 64 36 12 0 0 0 0 0 0 0 0 0 0 0 0 0 0 0 0 0 0 0 0 0 0 8 8 8 8 12 20 12 12 8 8 0 0 0 0 0 0 0 0 0 0 0 0 0 0 0 0 0 0 0 0 0 0 0 0 0 0 0 0 0 0 0 0 0
8 20 12 8 0 0 0 8 8 8 0 0 0 0 0 36 36 36 68 44 24 8 0 0 0 0 0 0 0 0 0 0 0 0 0 0 0 0 0 0 0 0 0 8 8 8 8 12 12 12 12 24 24 12 0 0 0 0 0 0 0 0 0 0 0 0 0 0 0 0 0 0 0 0 0 0 0 0 0 0 0 0 0 0 0 0
64 64 44 8 0 0 0 0 0 8 24 56 64 64 68 32 20 20 20 12 36 56 24 8 0 0 0 0 0 0 0 0 0 0 0 0 0 0 0 0 0 0 0 8 8 0 8 12 12 12 12 8 8 8 0 0 0 0 0 0 0 0 0 0 0 0 0 0 0 0 0 0 0 0 0 0 0 0 0 0 0 0 0 0 0 0
36 24 12 0 0 0 0 0 0 12 68 68 68 68 68 32 20 24 44 32 48 64 36 36 20 0 0 0 0 0 0 0 0 0 0 0 0 0 0 0 0 0 0 0 8 20 12 12 8 8 12 8 8 8 8 0 0 0 0 0 0 0 0 0 0 0 0 0 0 0 0 0 0 0 0 0 0 0 0 0 0 0 0 0 0 0
8 8 0 0 0 0 0 0 20 44 68 68 68 64 56 44 36 36 48 64 68 68 68 32 20 20 12 0 0 12 32 8 0 0 0 0 0 0 0 0 0 0 0 0 12 24 20 20 20 44 80 36 24 36 56 32 36 36 8 0 0 0 0 0 20 36 44 32 12 0 0 0 0 0 0 0 0 0 0 0 0 0 0 0 0 0
0 0 0 0 0 0 0 20 44 64 64 68 68 68 68 68 56 44 48 64 68 56 32 32 36 44 36 56 48 44 68 32 8 0 0 0 0 0 0 0 0 0 12 0 8 24 36 36 36 36 36 64 56 36 24 20 12 8 0 0 0 0 0 0 0 0 0 0 0 0 0 0 0 0 0 0 0 0 0 0 0 0 0 0 0 0
0 0 0 0 0 0 0 0 0 24 64 64 68 68 68 68 68 68 56 64 48 44 68 56 48 56 64 64 68 64 56 44 24 8 0 0 0 0 0 0 0 0 0 20 48 68 76 36 24 24 24 20 20 24 32 24 12 0 0 0 0 0 0 0 0 0 0 0 0 0 0 0 0 0 0 0 0 0 0 0 0 0 0 0 0 0
0 0 0 0 0 0 0 0 8 24 56 64 64 68 68 68 64 64 68 68 68 68 68 68 68 68 64 68 68 56 32 24 44 48 12 36 24 0 0 0 0 0 0 0 0 12 48 20 20 20 0 12 8 8 24 12 0 0 0 0 0 0 0 0 0 0 0 0 0 0 0 0 0 0 0 0 0 0 0 0 0 0 0 0 0 0
0 0 0 0 0 0 0 0 8 20 24 32 48 64 68 68 56 48 68 68 68 68 64 68 68 64 68 64 56 56 48 56 56 44 20 20 8 0 0 0 0 0 0 0 0 0 0 0 0 0 0 0 0 0 0 0 0 0 0 0 0 0 0 0 8 12 8 8 8 8 0 0 0 0 0 0 0 0 0 0 0 0 0 0 0 0
0 0 0 0 0 0 8 8 12 20 12 8 36 64 64 68 68 68 68 68 68 64 56 64 64 56 56 44 32 24 12 32 44 44 32 12 0 0 0 0 0 0 0 0 0 0 0 0 0 0 0 0 0 0 0 0 0 0 0 0 8 20 20 8 36 76 48 48 48 44 20 8 24 36 12 0 0 0 0 8 0 0 0 0 0 0
0 0 0 0 0 8 8 12 12 12 12 8 24 48 48 56 48 48 68 68 68 68 68 64 56 44 32 32 20 20 24 44 56 68 64 24 0 0 0 0 0 0 0 0 0 0 0 0 0 0 0 0 0 0 0 0 0 0 0 12 44 68 68 36 44 64 68 64 64 68 80 48 48 56 44 12 0 8 8 24 12 0 0 0 0 0
0 0 0 0 0 8 20 12 24 32 20 32 32 36 44 32 20 20 68 68 64 64 64 64 68 56 36 20 24 32 48 48 48 44 32 12 0 0 0 0 0 0 0 0 0 0 0 0 0 0 0 0 0 0 0 0 0 0 0 36 36 24 32 48 32 8 24 32 44 48 56 56 24 0 12 8 8 12 24 20 12 0 0 0 0 0